Time,TemperatureF,DewpointF,PressureIn,WindDirection,WindDirectionDegrees,WindSpeedMPH,WindSpeedGustMPH,Humidity,HourlyPrecipIn,Conditions,Clouds,dailyrainin,SoftwareType,DateUTC
2013-04-16 00:00:00,35.9,29.7,30.32,NNW,336,0.0,0.0,78,0.00,,,0.00,Wunderground v.1.13,2013-04-16 04:00:00,
2013-04-16 00:30:00,38.5,30.3,30.32,NNW,344,1.0,1.0,72,0.00,,,0.00,Wunderground v.1.13,2013-04-16 04:30:00,
2013-04-16 01:00:00,39.4,30.8,30.31,NW,311,1.0,3.0,71,0.00,,,0.00,Wunderground v.1.13,2013-04-16 05:00:00,
2013-04-16 01:30:00,39.9,31.6,30.31,WNW,294,1.0,4.0,72,0.00,,,0.00,Wunderground v.1.13,2013-04-16 05:30:00,
2013-04-16 02:00:00,40.3,33.0,30.30,WSW,248,1.0,1.0,75,0.00,,,0.00,Wunderground v.1.13,2013-04-16 06:00:00,
2013-04-16 02:30:00,40.2,33.2,30.29,NNW,329,2.0,2.0,76,0.00,,,0.00,Wunderground v.1.13,2013-04-16 06:30:00,
2013-04-16 03:00:00,39.6,33.3,30.28,NW,324,1.0,1.0,78,0.00,,,0.00,Wunderground v.1.13,2013-04-16 07:00:00,
2013-04-16 03:30:00,39.1,33.5,30.29,NNW,328,1.0,1.0,80,0.00,,,0.00,Wunderground v.1.13,2013-04-16 07:30:00,
2013-04-16 04:00:00,38.9,33.6,30.28,WNW,288,3.0,3.0,81,0.00,,,0.00,Wunderground v.1.13,2013-04-16 08:00:00,
2013-04-16 04:30:00,38.4,33.4,30.28,NW,319,2.0,2.0,82,0.00,,,0.00,Wunderground v.1.13,2013-04-16 08:30:00,
2013-04-16 05:00:00,37.9,33.2,30.26,NW,317,2.0,9.0,83,0.00,,,0.00,Wunderground v.1.13,2013-04-16 09:00:00,
2013-04-16 05:30:00,37.3,32.9,30.25,NW,321,3.0,3.0,84,0.00,,,0.00,Wunderground v.1.13,2013-04-16 09:30:00,
2013-04-16 06:00:00,36.9,32.8,30.25,NNW,329,1.0,1.0,85,0.00,,,0.00,Wunderground v.1.13,2013-04-16 10:00:00,
2013-04-16 06:30:00,37.2,32.8,30.23,NNW,327,2.0,2.0,84,0.00,,,0.00,Wunderground v.1.13,2013-04-16 10:30:00,
2013-04-16 07:00:00,37.5,33.1,30.23,NNW,335,3.0,3.0,84,0.00,,,0.00,Wunderground v.1.13,2013-04-16 11:00:00,
2013-04-16 07:30:00,37.9,33.2,30.21,WNW,298,6.0,6.0,83,0.00,,,0.00,Wunderground v.1.13,2013-04-16 11:30:00,
2013-04-16 08:00:00,38.3,33.3,30.20,North,355,4.0,4.0,82,0.00,,,0.00,Wunderground v.1.13,2013-04-16 12:00:00,
2013-04-16 08:30:00,38.3,33.3,30.19,North,355,4.0,4.0,82,0.00,,,0.00,Wunderground v.1.13,2013-04-16 12:30:00,
2013-04-16 09:00:00,40.2,34.2,30.19,NNW,329,4.0,4.0,79,0.00,,,0.00,Wunderground v.1.13,2013-04-16 13:00:00,
2013-04-16 09:30:00,42.6,35.2,30.17,NW,315,5.0,5.0,75,0.00,,,0.00,Wunderground v.1.13,2013-04-16 13:30:00,
2013-04-16 10:00:00,44.2,36.1,30.16,NNW,344,4.0,6.0,73,0.00,,,0.00,Wunderground v.1.13,2013-04-16 14:00:00,
2013-04-16 10:30:00,46.1,36.1,30.13,North,355,4.0,7.0,68,0.00,,,0.00,Wunderground v.1.13,2013-04-16 14:30:00,
2013-04-16 11:00:00,46.8,36.0,30.11,NNW,346,5.0,9.0,66,0.00,,,0.00,Wunderground v.1.13,2013-04-16 15:00:00,
2013-04-16 11:30:00,46.5,36.1,30.10,North,360,4.0,4.0,67,0.00,,,0.00,Wunderground v.1.13,2013-04-16 15:30:00,
2013-04-16 12:00:00,45.7,36.1,30.07,NNW,327,7.0,7.0,69,0.00,,,0.00,Wunderground v.1.13,2013-04-16 16:00:00,
2013-04-16 12:30:00,46.9,36.1,30.05,NNW,346,6.0,6.0,66,0.00,,,0.00,Wunderground v.1.13,2013-04-16 16:30:00,
2013-04-16 13:00:00,46.9,35.7,30.03,North,360,8.0,8.0,65,0.00,,,0.00,Wunderground v.1.13,2013-04-16 17:00:00,
2013-04-16 13:30:00,45.8,38.0,30.03,NNW,336,5.0,5.0,74,0.00,,,0.00,Wunderground v.1.13,2013-04-16 17:30:00,
2013-04-16 14:00:00,44.1,39.6,30.00,NNW,338,5.0,7.0,84,0.05,,,0.03,Wunderground v.1.13,2013-04-16 18:00:00,
2013-04-16 14:30:00,43.2,40.2,29.98,North,360,6.0,9.0,89,0.07,,,0.07,Wunderground v.1.13,2013-04-16 18:30:00,
2013-04-16 15:00:00,42.8,40.4,29.95,NNW,344,5.0,10.0,91,0.04,,,0.09,Wunderground v.1.13,2013-04-16 19:00:00,
2013-04-16 15:30:00,42.6,39.9,29.93,NNW,331,6.0,6.0,90,0.00,,,0.10,Wunderground v.1.13,2013-04-16 19:30:00,
2013-04-16 16:00:00,42.6,39.9,29.91,NNW,341,4.0,10.0,90,0.00,,,0.10,Wunderground v.1.13,2013-04-16 20:00:00,
2013-04-16 16:30:00,42.5,40.1,29.90,NNW,333,5.0,5.0,91,0.07,,,0.14,Wunderground v.1.13,2013-04-16 20:30:00,
2013-04-16 17:00:00,42.7,40.3,29.88,NW,325,5.0,5.0,91,0.00,,,0.14,Wunderground v.1.13,2013-04-16 21:00:00,
2013-04-16 17:30:00,42.8,39.8,29.87,NNW,336,6.0,6.0,89,0.00,,,0.15,Wunderground v.1.13,2013-04-16 21:30:00,
2013-04-16 18:00:00,42.5,39.8,29.86,NNW,342,7.0,7.0,90,0.00,,,0.15,Wunderground v.1.13,2013-04-16 22:00:00,
2013-04-16 18:30:00,42.1,39.4,29.84,North,355,8.0,8.0,90,0.00,,,0.15,Wunderground v.1.13,2013-04-16 22:30:00,
2013-04-16 19:00:00,41.7,39.0,29.82,North,355,7.0,7.0,90,0.00,,,0.16,Wunderground v.1.13,2013-04-16 23:00:00,
2013-04-16 19:30:00,41.1,38.7,29.79,NW,317,7.0,10.0,91,0.00,,,0.17,Wunderground v.1.13,2013-04-16 23:30:00,
2013-04-16 20:00:00,40.9,38.5,29.78,NW,321,8.0,8.0,91,0.04,,,0.18,Wunderground v.1.13,2013-04-17 00:00:00,
2013-04-16 20:30:00,40.8,38.7,29.77,NW,322,8.0,8.0,92,0.00,,,0.18,Wunderground v.1.13,2013-04-17 00:30:00,
2013-04-16 21:00:00,40.9,38.5,29.77,NNW,343,7.0,12.0,91,0.00,,,0.18,Wunderground v.1.13,2013-04-17 01:00:00,
2013-04-16 21:30:00,40.8,38.7,29.75,NNW,338,6.0,20.0,92,0.00,,,0.18,Wunderground v.1.13,2013-04-17 01:30:00,
2013-04-16 22:00:00,40.8,38.9,29.74,NNW,338,6.0,16.0,93,0.00,,,0.18,Wunderground v.1.13,2013-04-17 02:00:00,
2013-04-16 22:30:00,41.0,39.1,29.73,North,5,8.0,10.0,93,0.00,,,0.18,Wunderground v.1.13,2013-04-17 02:30:00,
2013-04-16 23:00:00,41.4,39.8,29.74,NNW,345,6.0,6.0,94,0.00,,,0.18,Wunderground v.1.13,2013-04-17 03:00:00,
2013-04-16 23:30:00,41.9,40.6,29.74,North,355,3.0,3.0,95,0.00,,,0.18,Wunderground v.1.13,2013-04-17 03:30:00,